TimePST,TemperatureF,Dew PointF,Humidity,Sea Level PressureIn,VisibilityMPH,Wind Direction,Wind SpeedMPH,Gust SpeedMPH,PrecipitationIn,Events,Conditions,WindDirDegrees,DateUTC
12:12 AM,46.4,39.2,76,29.80,10.0,South,10.4,-,N/A,Rain,Light Rain,180,2013-02-07 08:12:00
12:32 AM,46.4,39.2,76,29.82,10.0,WSW,13.8,-,N/A,Rain,Light Rain,240,2013-02-07 08:32:00
12:47 AM,44.6,42.8,93,29.84,8.0,SSW,16.1,-,N/A,Rain,Light Rain,210,2013-02-07 08:47:00
12:49 AM,44.6,42.8,93,29.84,9.0,SSW,19.6,24.2,N/A,Rain,Light Rain,200,2013-02-07 08:49:00
12:53 AM,44.6,41.0,87,29.84,10.0,South,21.9,29.9,N/A,Rain,Light Rain,190,2013-02-07 08:53:00
12:55 AM,44.6,41.0,87,29.85,10.0,SSW,18.4,29.9,N/A,,Overcast,200,2013-02-07 08:55:00
12:56 AM,44.6,41.0,87,29.85,10.0,SSW,16.1,29.9,N/A,,Overcast,200,2013-02-07 08:56:00
1:00 AM,44.6,41.0,87,29.85,10.0,South,15.0,29.9,N/A,,Overcast,190,2013-02-07 09:00:00
1:10 AM,42.8,39.2,87,29.85,9.0,South,15.0,29.9,N/A,Rain,Light Rain,190,2013-02-07 09:10:00
1:19 AM,42.8,41.0,93,29.85,10.0,South,16.1,23.0,N/A,,Overcast,180,2013-02-07 09:19:00
1:56 AM,41.0,39.2,93,29.87,10.0,South,13.8,-,N/A,,Partly Cloudy,170,2013-02-07 09:56:00
2:58 AM,41.0,37.8,88,29.92,10.0,South,10.4,-,N/A,,Mostly Cloudy,170,2013-02-07 10:58:00
3:28 AM,41.0,37.4,87,29.91,10.0,South,15.0,-,N/A,,Overcast,180,2013-02-07 11:28:00
3:33 AM,41.0,37.4,87,29.91,10.0,South,16.1,-,N/A,Rain,Light Rain,180,2013-02-07 11:33:00
3:52 AM,41.0,37.4,87,29.92,10.0,South,10.4,-,N/A,,Mostly Cloudy,180,2013-02-07 11:52:00
3:58 AM,41.0,37.4,87,29.94,10.0,South,11.5,-,0.00,,Overcast,180,2013-02-07 11:58:00
4:38 AM,41.0,35.6,81,29.94,10.0,South,12.7,-,N/A,,Mostly Cloudy,190,2013-02-07 12:38:00
4:53 AM,41.0,35.6,81,29.94,10.0,South,10.4,-,N/A,,Mostly Cloudy,190,2013-02-07 12:53:00
4:58 AM,41.0,36.5,84,29.97,10.0,South,9.2,-,N/A,,Mostly Cloudy,190,2013-02-07 12:58:00
5:08 AM,41.0,37.4,87,29.95,10.0,SSW,8.1,-,N/A,,Mostly Cloudy,200,2013-02-07 13:08:00
5:18 AM,41.0,37.4,87,29.95,10.0,SSW,6.9,-,N/A,,Overcast,200,2013-02-07 13:18:00
5:23 AM,41.0,37.4,87,29.95,10.0,South,9.2,-,N/A,,Overcast,190,2013-02-07 13:23:00
5:30 AM,41.0,37.4,87,29.95,10.0,SSW,12.7,-,N/A,,Overcast,200,2013-02-07 13:30:00
5:35 AM,41.0,37.4,87,29.95,10.0,South,9.2,-,N/A,,Overcast,190,2013-02-07 13:35:00
5:36 AM,41.0,37.4,87,29.95,10.0,South,9.2,-,N/A,,Overcast,190,2013-02-07 13:36:00
5:46 AM,41.0,37.4,87,29.95,10.0,SSW,8.1,-,N/A,,Overcast,200,2013-02-07 13:46:00
5:58 AM,40.5,36.9,87,29.98,10.0,South,6.9,-,0.00,,Mostly Cloudy,190,2013-02-07 13:58:00
6:13 AM,39.2,37.4,93,29.96,10.0,South,4.6,-,N/A,,Mostly Cloudy,180,2013-02-07 14:13:00
6:18 AM,39.2,37.4,93,29.96,10.0,South,4.6,-,N/A,,Mostly Cloudy,180,2013-02-07 14:18:00
6:58 AM,37.4,35.6,93,30.00,10.0,South,4.6,-,N/A,,Mostly Cloudy,190,2013-02-07 14:58:00
7:13 AM,37.4,35.6,93,29.98,10.0,South,5.8,-,N/A,,Overcast,180,2013-02-07 15:13:00
7:58 AM,39.0,36.9,92,29.99,10.0,South,6.9,-,N/A,,Mostly Cloudy,190,2013-02-07 15:58:00
8:58 AM,40.8,37.4,88,30.01,10.0,Calm,Calm,-,N/A,,Partly Cloudy,0,2013-02-07 16:58:00
9:58 AM,44.1,36.9,76,30.02,10.0,South,6.9,-,N/A,,Mostly Cloudy,180,2013-02-07 17:58:00
10:58 AM,46.4,36.3,68,30.03,10.0,SSE,5.8,-,N/A,,Mostly Cloudy,160,2013-02-07 18:58:00
11:58 AM,46.9,35.2,64,30.03,10.0,SW,5.8,-,N/A,,Mostly Cloudy,230,2013-02-07 19:58:00
12:37 PM,46.4,35.6,66,30.03,10.0,SW,3.5,-,N/A,Rain,Light Rain,220,2013-02-07 20:37:00
12:47 PM,46.4,35.6,66,30.03,10.0,SSW,8.1,-,N/A,,Overcast,200,2013-02-07 20:47:00
12:58 PM,45.7,34.0,64,30.03,10.0,SSW,4.6,-,0.00,,Overcast,210,2013-02-07 20:58:00
1:58 PM,46.0,35.2,66,30.04,10.0,NW,5.8,-,N/A,,Partly Cloudy,310,2013-02-07 21:58:00
2:58 PM,48.0,34.5,60,30.05,10.0,SW,4.6,-,N/A,,Clear,230,2013-02-07 22:58:00
3:58 PM,48.6,34.2,58,30.05,10.0,NW,2.3,-,N/A,,Partly Cloudy,320,2013-02-07 23:58:00
4:58 PM,46.4,32.5,59,30.07,10.0,NW,4.6,-,N/A,,Clear,310,2013-02-08 00:58:00
5:58 PM,42.8,33.3,69,30.09,10.0,North,3.5,-,N/A,,Clear,10,2013-02-08 01:58:00
6:58 PM,35.8,31.3,84,30.11,10.0,Calm,Calm,-,N/A,,Clear,0,2013-02-08 02:58:00
7:58 PM,32.4,30.6,93,30.13,10.0,South,2.3,-,N/A,,Clear,170,2013-02-08 03:58:00
8:58 PM,31.1,30.7,99,30.15,10.0,South,3.5,-,N/A,,Clear,170,2013-02-08 04:58:00
9:58 PM,29.7,29.3,99,30.17,10.0,SSE,4.6,-,N/A,,Clear,160,2013-02-08 05:58:00
10:58 PM,28.8,28.6,99,30.19,10.0,South,4.6,-,N/A,,Clear,170,2013-02-08 06:58:00
11:58 PM,26.8,26.4,99,30.20,10.0,South,2.3,-,N/A,,Partly Cloudy,170,2013-02-08 07:58:00